Regional Weather Roundup
Issued by NWS

Home | Current Version | Previous Version | Graphics & Text | Print | Product List | Glossary On
Versions: 1 2 3 4 5 6 7 8 9 10 11 12 13 14 15 16 17 18 19 20 21 22 23 24 25 26 27 28 29 30 31 32 33 34 35 36 37 38 39 40 41 42 43 44 45 46 47 48 49 50
000
ASUS43 KLSX 290907
RWRMO

WEATHER SUMMARY FOR MISSOURI
NATIONAL WEATHER SERVICE SPRINGFIELD MO
300 AM CST MON DEC 29 2014

NOTE: "FAIR" INDICATES FEW OR NO CLOUDS BELOW 12,000 FEET WITH NO
       SIGNIFICANT WEATHER AND/OR OBSTRUCTIONS TO VISIBILITY.
       CURRENT SKY AND/OR WEATHER CONDITIONS ARE NOT AVAILABLE FOR
       CHILLICOTHE AND FARMINGTON.

MOZ001>031-035>038-043-044-053-054-291000-
...NORTHERN AND WESTERN MISSOURI...

CITY           SKY/WX    TMP DP  RH WIND       PRES   REMARKS
KANSAS CTY INT MOCLDY    25  18  74 SE8       30.20S WCI  16
KANSAS C DTWN  PTCLDY    31  21  66 CALM      30.22R
LEE`S SUMMIT   PTCLDY    29  19  66 E3        30.21S
ST JOSEPH      MOCLDY    27  23  85 CALM      30.22S
CHILLICOTHE      N/A     27  22  81 CALM      30.25R
KIRKSVILLE     CLOUDY    25  22  88 CALM      30.24S

$$
MOZ066>068-077>081-088>096-101>105-291000-
...SOUTHWEST MISSOURI...

CITY           SKY/WX    TMP DP  RH WIND       PRES   REMARKS
SPRINGFIELD    PTCLDY    21  17  84 CALM      30.17S
JOPLIN         CLEAR     22  20  92 E5        30.19R WCI  16

$$
MOZ032>034-039>042-045>050-055>058-069>072-291000-
...CENTRAL MISSOURI...

CITY           SKY/WX    TMP DP  RH WIND       PRES   REMARKS
COLUMBIA       PTCLDY    23  20  88 NE5       30.23R WCI  17
JEFFERSON CITY CLEAR     20  17  88 CALM      30.26R
ROLLA          CLEAR     22  19  89 CALM      30.19S
SEDALIA        MOCLDY    24  20  84 CALM      30.22F
WHITEMAN AFB   MOCLDY    25  21  86 CALM      30.19S
WARRENSBURG    MOCLDY    25  23  93 CALM      30.22F
OSAGE BEACH    CLEAR     19  16  86 CALM      30.21S

$$
MOZ051-052-059>065-291000-
...EAST CENTRAL MISSOURI...

CITY           SKY/WX    TMP DP  RH WIND       PRES   REMARKS
ST LOUIS INTL  CLEAR     24  20  84 CALM      30.25F
SPIRIT OF STL  CLEAR     21  18  88 CALM      30.25S
ST CHARLES     CLEAR     24  23  96 CALM      30.26S FOG

$$
MOZ072>076-082>087-097>100-106>115-291000-
...SOUTH CENTRAL AND SOUTHEAST MISSOURI...

CITY           SKY/WX    TMP DP  RH WIND       PRES   REMARKS
CAPE GIRARDEAU CLOUDY    32  27  81 NE7       30.24R WCI  26
FARMINGTON     MOCLDY    19  18  93 CALM      30.23S
POPLAR BLUFF   CLOUDY    32  25  75 N10       30.23R WCI  24
WEST PLAINS    CLEAR     20  15  81 CALM      30.19S

$$


USA.gov is the U.S. government's official web portal to all federal, state and local government web resources and services.